[[{"header":{"parameterUnit":"m.s-1","parameterCategory":1,"la1":30.2991,"la2":30.254,"lo1":-89.0895,"lo2":-89.0444,"dy":0.0017,"dx":0.0017,"nx":28,"ny":28,"refTime":"2024-08-04T03:00:00:Z","depth":0,"parameterNumber":2,"parameterNumberName":"U-component_of_WINDS"},"data":[0,0,0,0,0,0,0,0,0,0,0,0,0,0,0,0,0,0,0,0,0,0,0,0,0,0,0,0,0,0,0,0,0,0,0,0,0,0,0,0,0,0,0,0,0,0,0,0,0,0,0,0,0,0,0,0,0,0,1.9809,1.9808,0,1.9656,1.9654,1.9652,1.9415,1.941,1.9406,1.9402,1.9248,1.9248,1.9248,0,0,0,0,0,0,0,0,0,0,0,0,0,1.9898,1.9897,1.981,1.9808,1.9806,1.9656,1.9654,1.9652,1.9415,1.941,1.9405,1.94,1.9248,1.9248,1.9248,0,0,0,0,0,0,0,0,0,0,0,0,0,1.9814,1.9897,1.981,1.9669,1.9655,1.9656,1.9654,1.9651,1.9416,1.941,1.9404,1.9398,1.9248,1.9248,1.9248,1.9375,0,0,1.9248,1.9247,0,0,0,0,0,0,0,0,1.9819,1.9811,1.9692,1.9679,1.9663,1.9548,1.9628,1.9559,1.9418,1.9507,1.9402,1.9394,1.9353,1.9344,1.9329,1.9368,1.9361,1.9248,1.9247,1.9247,1.9247,0,0,0,0,0,0,0,1.9825,1.9816,1.9749,1.9691,1.9673,1.9614,1.9595,1.9614,1.9468,1.9499,1.9481,1.9466,1.9344,1.933,1.9324,1.9359,1.9248,1.9247,1.9247,1.9247,1.9488,1.9494,0,0,0,0,0,0,1.9851,1.9822,1.9753,1.9744,1.9727,1.9618,1.9596,1.9591,1.9467,1.9442,1.9472,1.9456,1.9334,1.9325,1.9318,1.9455,1.9247,1.9247,1.9247,1.9481,1.9489,1.9496,0,0,0,0,0,0,1.9854,1.9847,1.976,1.9778,1.9762,1.9623,1.9619,1.9592,1.9577,1.9447,1.942,1.9484,1.9328,1.9318,1.9361,1.9446,1.9247,1.9247,1.9474,1.9484,1.9493,1.9733,0,0,0,0,0,0,1.9857,1.985,1.9897,1.9781,1.9762,1.9807,1.9624,1.9593,1.9577,1.9555,1.9451,1.9428,1.9322,1.9363,1.9361,1.9442,1.9247,1.9465,1.9478,1.949,1.9717,1.975,1.9778,0,0,0,0,0,1.9861,1.9973,1.9901,1.9894,1.9819,1.9812,1.9802,1.9677,1.9585,1.9631,1.9546,1.9431,1.9437,1.9369,1.9365,1.9448,1.9459,1.9475,1.9489,1.9703,1.9743,1.9777,0,0,0,0,0,0,2.0105,1.9955,1.9874,1.9951,1.9896,1.9772,1.9827,1.9724,1.9695,1.9675,1.9522,1.9501,1.9563,1.9509,1.9436,1.9561,1.943,1.9445,1.9595,1.9632,1.9662,1.9674,1.9247,0,0,0,0,0,2.0168,2.0174,2.0043,2.0124,2.01,1.9969,1.9961,1.9869,1.9806,1.9783,1.9701,1.9645,1.9633,1.9629,1.9612,1.9707,1.9679,1.9762,1.9792,1.9818,1.9833,1.9875,1.9909,1.9544,1.9544,1.9544,0,0,2.0298,2.0216,2.023,2.017,2.0117,2.0127,1.9951,1.997,1.9975,1.9786,1.982,1.9758,1.9685,1.9754,1.978,1.9711,1.9926,1.9836,1.9858,1.9858,1.9893,1.9928,1.9959,1.9554,1.9552,1.9551,0,0,2.0538,2.0479,2.0537,2.0486,2.0406,2.0317,2.0331,2.0222,2.0173,2.0204,2.0061,2.0065,2.0049,2.0001,1.9976,2.0193,2.0085,2.0191,2.0352,2.0394,2.0423,2.0448,2.0523,2.0552,2.0206,2.0207,2.0207,0,2.0711,2.0719,2.0581,2.0607,2.0584,2.0409,2.0467,2.0424,2.0344,2.0332,2.0255,2.0227,2.0167,2.022,2.0272,2.0258,2.0267,2.0203,2.043,2.0453,2.0474,2.0544,2.0573,2.022,2.0219,2.0217,2.0216,0,2.0933,2.0941,2.0998,2.0922,2.0904,2.0947,2.0814,2.0813,2.0721,2.064,2.0672,2.0592,2.0553,2.0558,2.0471,2.0598,2.0557,2.0458,2.0323,2.0525,2.0588,2.0614,2.0239,2.0234,2.023,2.0227,0,0,2.1327,2.117,2.1193,2.1154,2.1051,2.1054,2.1087,2.1047,2.1048,2.0997,2.1019,2.1007,2.0912,2.0883,2.0787,2.0825,2.0998,2.0719,2.0715,2.0773,2.113,2.1206,2.1239,2.0925,2.093,2.0934,2.1135,0,2.1547,2.1594,2.1468,2.1546,2.155,2.1382,2.1409,2.1349,2.1272,2.1264,2.1179,2.1172,2.1049,2.1029,2.1059,2.0972,2.1068,2.0955,2.0944,2.0945,2.0967,2.1272,2.1353,2.1548,2.1159,2.1163,2.1166,0,2.1811,2.177,2.1849,2.1736,2.1733,2.1761,2.1711,2.1705,2.1631,2.1573,2.1538,2.1424,2.1446,2.1316,2.1343,2.1269,2.1256,2.1212,2.1216,2.1211,2.1069,2.1274,2.1607,2.1637,2.1204,2.1201,2.1199,0,2.2089,2.2054,2.2095,2.2067,2.1938,2.196,2.1907,2.1826,2.1809,2.1765,2.1751,2.1712,2.1691,2.1662,2.154,2.1457,2.158,2.1441,2.1531,2.1534,2.1566,2.1566,2.1901,2.1559,2.1559,2.1558,2.1558,0,2.2347,2.2402,2.2217,2.2243,2.2297,2.215,2.2208,2.2138,2.2066,2.2074,2.1926,2.1936,2.1775,2.1767,2.1671,2.1706,2.1698,2.165,2.1624,2.1663,2.1669,2.1653,2.1637,2.1566,2.1564,2.1563,2.1561,0,2.2668,2.2547,2.258,2.2453,2.2422,2.2467,2.2358,2.2375,2.2287,2.2298,2.2292,2.2155,2.2137,2.2012,2.1967,2.1902,2.1972,2.1919,2.1997,2.198,2.2076,2.2069,2.2413,2.2449,2.2086,2.209,2.2093,0,2.2842,2.2878,2.2754,2.2748,2.2701,2.2694,2.2673,2.2529,2.2514,2.2429,2.2456,2.2425,2.2393,2.2372,2.2268,2.2231,2.2176,2.2298,2.217,2.2206,2.2175,2.2175,2.2176,2.2327,2.2332,2.2336,2.2339,0,2.3161,2.3098,2.3075,2.303,2.3009,2.2967,2.2916,2.2919,2.2758,2.2749,2.2727,2.2703,2.2653,2.2624,2.2568,2.2511,2.2399,2.238,2.2398,2.2439,2.2481,2.2458,2.2071,2.2373,2.237,2.2367,2.2365,2.2364,2.3412,2.3436,2.3351,2.3328,2.3273,2.3228,2.3236,2.3148,2.3127,2.3075,2.299,2.2981,2.29,2.2812,2.2765,2.2753,2.2688,2.2716,2.2722,2.2731,2.2751,2.2483,2.2743,2.2741,2.274,2.2739,2.2739,0,2.3723,2.3659,2.3639,2.357,2.3552,2.3445,2.3381,2.3373,2.3365,2.3299,2.3269,2.3243,2.3212,2.3103,2.306,2.3072,2.3019,2.3065,2.3063,2.3051,2.2813,2.28,2.3109,2.3109,2.3109,2.3109,2.3109,2.3109,2.3883,2.3916,2.3842,2.3845,2.3779,2.3767,2.374,2.3695,2.3641,2.3618,2.3591,2.3519,2.3435,2.3384,2.335,2.3318,2.3309,2.3373,2.3325,2.3104,2.3069,2.3035,2.3022,2.3372,2.3373,2.3563,2.3565,2.3566]},{"header":{"parameterUnit":"m.s-1","parameterCategory":1,"la1":30.2991,"la2":30.254,"lo1":-89.0895,"lo2":-89.0444,"dy":0.0017,"dx":0.0017,"nx":28,"ny":28,"refTime":"2024-08-04T03:00:00:Z","depth":0,"parameterNumber":3,"parameterNumberName":"V-component_of_WINDS"},"data":[0,0,0,0,0,0,0,0,0,0,0,0,0,0,0,0,0,0,0,0,0,0,0,0,0,0,0,0,0,0,0,0,0,0,0,0,0,0,0,0,0,0,0,0,0,0,0,0,0,0,0,0,0,0,0,0,0,0,3.6196,3.6196,0,3.6192,3.6192,3.6192,3.6107,3.6105,3.6103,3.6101,3.6092,3.6094,3.6095,0,0,0,0,0,0,0,0,0,0,0,0,0,3.6117,3.6119,3.6196,3.6196,3.6196,3.6192,3.6192,3.6192,3.6108,3.6105,3.6102,3.61,3.6091,3.6093,3.6096,0,0,0,0,0,0,0,0,0,0,0,0,0,3.6136,3.6119,3.6196,3.6153,3.6149,3.6192,3.6192,3.6192,3.6108,3.6105,3.6102,3.6099,3.6091,3.6093,3.6096,3.6178,0,0,3.6104,3.6105,0,0,0,0,0,0,0,0,3.6135,3.6139,3.6159,3.6156,3.6152,3.6147,3.6161,3.6187,3.6109,3.6124,3.6101,3.6097,3.6112,3.6113,3.612,3.6178,3.6177,3.6104,3.6106,3.6107,3.6108,0,0,0,0,0,0,0,3.6134,3.6139,3.6194,3.616,3.6155,3.613,3.6129,3.6166,3.6136,3.6122,3.6116,3.6117,3.611,3.6117,3.6119,3.6177,3.6104,3.6107,3.6108,3.6109,3.6291,3.6294,0,0,0,0,0,0,3.6139,3.6138,3.6194,3.6194,3.6135,3.6134,3.6133,3.6152,3.6136,3.613,3.612,3.6113,3.6114,3.6116,3.6118,3.6206,3.6107,3.611,3.6111,3.6288,3.6292,3.6295,0,0,0,0,0,0,3.6138,3.6145,3.6194,3.6164,3.6169,3.6139,3.616,3.6153,3.6161,3.6134,3.6127,3.6134,3.6112,3.6114,3.6162,3.6205,3.6111,3.6113,3.6284,3.6289,3.6293,3.6387,0,0,0,0,0,0,3.6136,3.6146,3.618,3.6166,3.6171,3.6242,3.6163,3.6156,3.6166,3.6158,3.6145,3.614,3.6109,3.6158,3.6164,3.6207,3.6115,3.628,3.6286,3.6292,3.638,3.6394,3.6407,0,0,0,0,0,3.6134,3.6207,3.6182,3.6189,3.6213,3.6245,3.6247,3.6212,3.6171,3.6202,3.6183,3.614,3.62,3.6164,3.617,3.6214,3.6277,3.6284,3.6291,3.6374,3.6392,3.6407,0,0,0,0,0,0,3.6227,3.6205,3.6177,3.6249,3.6249,3.6231,3.627,3.6234,3.6245,3.6236,3.619,3.6188,3.624,3.6232,3.6193,3.6287,3.623,3.6239,3.6291,3.6307,3.6321,3.632,3.6118,0,0,0,0,0,3.6256,3.6287,3.6264,3.633,3.6331,3.63,3.6313,3.6285,3.6283,3.6283,3.6268,3.6266,3.6282,3.6295,3.631,3.6379,3.637,3.6411,3.6424,3.6436,3.6443,3.6469,3.6485,3.6319,3.6319,3.6319,0,0,3.6317,3.6308,3.633,3.6348,3.6345,3.6372,3.6301,3.6336,3.6354,3.6288,3.633,3.6319,3.6312,3.6368,3.6392,3.6363,3.6486,3.6445,3.6454,3.6455,3.6478,3.6494,3.6508,3.6324,3.6323,3.6322,0,0,3.6439,3.6439,3.6489,3.6486,3.6482,3.646,3.6472,3.6457,3.6447,3.6489,3.6437,3.6456,3.6489,3.6484,3.6486,3.6597,3.6555,3.6603,3.6673,3.6699,3.6712,3.6723,3.6757,3.677,3.6611,3.6611,3.6611,0,3.6514,3.6556,3.6519,3.6554,3.656,3.6501,3.6547,3.6546,3.6547,3.655,3.6518,3.6551,3.6544,3.6593,3.662,3.6626,3.6632,3.6604,3.6714,3.6725,3.6735,3.6765,3.6779,3.6617,3.6616,3.6616,3.6615,0,3.6644,3.6674,3.6714,3.6715,3.6725,3.6767,3.673,3.6745,3.6714,3.6694,3.6732,3.672,3.6727,3.6737,3.671,3.6781,3.6762,3.6723,3.6664,3.6757,3.6784,3.6796,3.6624,3.6622,3.6621,3.662,0,0,3.6828,3.6803,3.6818,3.6813,3.6801,3.6821,3.6856,3.6864,3.6873,3.6875,3.6898,3.6923,3.6884,3.6886,3.6856,3.688,3.696,3.6837,3.6835,3.6855,3.7028,3.7055,3.707,3.6933,3.6935,3.6937,3.7027,0,3.6941,3.7002,3.6965,3.7029,3.705,3.6991,3.702,3.7013,3.6993,3.7005,3.6982,3.6998,3.695,3.6949,3.697,3.6946,3.6993,3.694,3.6949,3.6949,3.6948,3.7085,3.7115,3.7201,3.7038,3.704,3.7042,0,3.7083,3.7087,3.7153,3.7128,3.7136,3.7163,3.7162,3.7177,3.7165,3.7148,3.7147,3.7108,3.7134,3.7078,3.7109,3.7073,3.7074,3.7062,3.7064,3.7061,3.6999,3.708,3.7228,3.7239,3.706,3.7058,3.7057,0,3.7201,3.7224,3.7264,3.7263,3.7238,3.7257,3.7247,3.7231,3.7235,3.7234,3.7234,3.7236,3.7236,3.7235,3.7195,3.7159,3.7229,3.7172,3.721,3.7211,3.7226,3.7225,3.7371,3.7235,3.7235,3.7234,3.7234,0,3.7329,3.7369,3.7316,3.734,3.7381,3.7336,3.7377,3.736,3.7346,3.7361,3.7311,3.7326,3.7274,3.7282,3.7251,3.7277,3.7279,3.7262,3.7252,3.7264,3.7265,3.7262,3.7253,3.7238,3.7237,3.7236,3.7236,0,3.7468,3.7435,3.7473,3.7444,3.7437,3.7468,3.7441,3.7459,3.7434,3.7454,3.7456,3.7416,3.7422,3.7382,3.7382,3.736,3.7399,3.7382,3.7404,3.7396,3.7435,3.743,3.758,3.7595,3.7454,3.7456,3.7457,0,3.755,3.7579,3.7552,3.7558,3.7551,3.7564,3.7566,3.7521,3.7525,3.7509,3.7527,3.7529,3.7528,3.7539,3.7507,3.7504,3.7483,3.7535,3.7482,3.749,3.7476,3.7473,3.7472,3.7546,3.7547,3.7549,3.755,0,3.7695,3.7675,3.7682,3.7681,3.7685,3.7682,3.7675,3.7683,3.7633,3.7639,3.7644,3.7643,3.764,3.764,3.763,3.7614,3.7571,3.7567,3.7575,3.7585,3.7594,3.7583,3.7428,3.7563,3.7562,3.7561,3.756,3.756,3.7804,3.7823,3.7805,3.7812,3.7802,3.7795,3.7808,3.7783,3.7787,3.7781,3.7754,3.7762,3.7741,3.7722,3.771,3.7713,3.7687,3.77,3.7702,3.7705,3.7709,3.7597,3.7711,3.7711,3.771,3.771,3.771,0,3.7941,3.7925,3.7932,3.7922,3.7925,3.7886,3.7875,3.7879,3.7887,3.7872,3.7871,3.7872,3.787,3.7837,3.7829,3.7837,3.7817,3.7836,3.7833,3.7828,3.7736,3.7727,3.7852,3.7852,3.7852,3.7852,3.7852,3.7852,3.8012,3.8042,3.8019,3.8039,3.8022,3.8031,3.8026,3.8017,3.8003,3.8008,3.8006,3.7984,3.7959,3.7948,3.7942,3.7931,3.7928,3.7953,3.7936,3.785,3.7836,3.7822,3.7814,3.7954,3.7955,3.8027,3.8027,3.8028]}]]